Weather History for KCOU - December, 2014

Change the Weather History Date:

Monday, December 15, 2014

  Actual Average Record
Temperature  
Mean Temperature 48 °F 32 °F  
Max Temperature 57 °F 41 °F 70 °F (1948)
Min Temperature 38 °F 23 °F -15 °F (1901)
Degree Days  
Heating Degree Days 17 33  
Month to date heating degree days 393 459  
Since 1 July heating degree days 1474 1444  
Cooling Degree Days 0 0  
Month to date cooling degree days 0 0  
Year to date cooling degree days 1266 1249  
Moisture  
Dew Point 45 °F    
Average Humidity 87    
Maximum Humidity 100    
Minimum Humidity 74    
Precipitation  
Precipitation 0.33 in 0.07 in 1.49 in (1992)
Month to date precipitation 1.59 1.30  
Year to date precipitation 43.53 41.48  
Snow  
Snow 0.00 in 0.10 in 7.00 in (1911)
Month to date snowfall T 1.8  
Since 1 July snowfall 0.8 2.7  
Snow Depth 0.00 in    
Sea Level Pressure  
Sea Level Pressure 29.73 in    
Wind  
Wind Speed 17 mph (SSW)    
Max Wind Speed 30 mph    
Max Gust Speed 37 mph    
Visibility 9 miles    
Events Rain    
T = Trace of Precipitation, MM = Missing Value Source: NWS Daily Summary

Daily Weather History Graph

Daily Weather History Graph

Search for Another Location

Airport or City:

Trip Planner

Search our weather history database for the weather conditions in past years. The results will help you decide how hot, cold, wet, or windy it might be!

Date:

Astronomy

Dec. 15, 2014 Rise Set
Actual Time 7:20 AM CST 4:48 PM CST
Civil Twilight 6:50 AM CST 5:17 PM CST
Nautical Twilight 6:16 AM CST 5:51 PM CST
Astronomical Twilight 5:44 AM CST 6:23 PM CST
Moon 12:42 AM CST (12/15) 12:45 PM CST (12/15)
Length of Visible Light 10h 27m
Length of Day
9h 28m
Last Quarter, 39% of the Moon is Illuminated
Dec 15
Last Quarter
Dec 21
New
Dec 28
First Quarter
Jan 4
Full
Jan 13
Last Quarter

Hourly Weather History & Observations

Time (CST) Temp. Windchill Dew Point Humidity Pressure Visibility Wind Dir Wind Speed Gust Speed Precip Events Conditions
12:23 AM 54.0 °F - 48.9 °F 83% 29.91 in 8.0 mi SSW 13.8 mph - 0.02 in Rain Rain
12:54 AM 52.0 °F - 50.0 °F 93% 29.88 in 5.0 mi South 6.9 mph - 0.06 in Rain Light Rain
1:54 AM 52.0 °F - 50.0 °F 93% 29.86 in 7.0 mi SE 9.2 mph - 0.04 in Rain Light Rain
2:54 AM 52.0 °F - 51.1 °F 97% 29.84 in 3.0 mi SE 12.7 mph - 0.11 in Rain Heavy Rain
3:28 AM 52.0 °F - 51.1 °F 97% 29.81 in 4.0 mi SE 24.2 mph 32.2 mph 0.10 in Rain Light Rain
3:54 AM 52.0 °F - 50.0 °F 93% 29.73 in 8.0 mi ESE 19.6 mph 27.6 mph 0.11 in Rain Light Rain
4:18 AM 52.0 °F - 50.0 °F 93% 29.72 in 9.0 mi ESE 18.4 mph 31.1 mph 0.00 in   Overcast
4:54 AM 52.0 °F - 50.0 °F 93% 29.73 in 9.0 mi SE 17.3 mph 27.6 mph 0.00 in   Overcast
5:54 AM 52.0 °F - 48.9 °F 89% 29.72 in 10.0 mi SE 16.1 mph 26.5 mph N/A   Overcast
6:13 AM 52.0 °F - 48.9 °F 89% 29.74 in 10.0 mi SSE 17.3 mph 26.5 mph N/A   Overcast
6:54 AM 51.1 °F - 48.9 °F 92% 29.72 in 10.0 mi SSE 15.0 mph - N/A   Overcast
7:54 AM 52.0 °F - 48.9 °F 89% 29.68 in 10.0 mi SE 16.1 mph - N/A   Overcast
8:54 AM 52.0 °F - 48.9 °F 89% 29.68 in 10.0 mi SSE 15.0 mph 25.3 mph N/A   Overcast
9:54 AM 52.0 °F - 48.9 °F 89% 29.69 in 10.0 mi SSE 13.8 mph - N/A   Overcast
10:54 AM 53.1 °F - 48.9 °F 86% 29.67 in 10.0 mi SSE 18.4 mph 23.0 mph N/A   Overcast
11:54 AM 55.0 °F - 50.0 °F 83% 29.62 in 10.0 mi SSE 19.6 mph - N/A   Overcast
12:54 PM 54.0 °F - 50.0 °F 86% 29.58 in 8.0 mi SSE 17.3 mph 26.5 mph 0.00 in Rain Light Rain
1:54 PM 57.0 °F - 51.1 °F 81% 29.57 in 10.0 mi SSW 6.9 mph - 0.01 in   Overcast
2:54 PM 52.0 °F - 44.1 °F 74% 29.61 in 10.0 mi WSW 21.9 mph 32.2 mph N/A   Mostly Cloudy
3:13 PM 51.1 °F - 44.1 °F 77% 29.62 in 10.0 mi SW 20.7 mph - N/A   Overcast
3:54 PM 50.0 °F - 43.0 °F 77% 29.64 in 10.0 mi SW 16.1 mph 27.6 mph N/A   Overcast
4:54 PM 48.0 °F - 44.1 °F 86% 29.67 in 8.0 mi WSW 26.5 mph 33.4 mph 0.00 in Rain Light Rain
5:18 PM 46.9 °F - 42.1 °F 83% 29.69 in 10.0 mi WSW 21.9 mph 31.1 mph 0.00 in   Overcast
5:54 PM 45.0 °F 36.4 °F 41.0 °F 86% 29.71 in 10.0 mi WSW 23.0 mph 31.1 mph 0.00 in   Overcast
6:54 PM 43.0 °F 34.0 °F 39.9 °F 89% 29.74 in 10.0 mi WSW 21.9 mph - N/A   Overcast
7:54 PM 42.1 °F 33.9 °F 37.9 °F 85% 29.75 in 10.0 mi WSW 17.3 mph 27.6 mph 0.00 in   Overcast
8:54 PM 41.0 °F 32.2 °F 37.0 °F 86% 29.77 in 9.0 mi West 18.4 mph - 0.00 in   Overcast
9:54 PM 39.9 °F 30.8 °F 35.1 °F 83% 29.78 in 10.0 mi WSW 18.4 mph 28.8 mph 0.00 in   Overcast
10:05 PM 39.9 °F 30.8 °F 35.1 °F 83% 29.78 in 10.0 mi WSW 18.4 mph - N/A   Overcast
10:40 PM 39.9 °F 31.1 °F 35.1 °F 83% 29.79 in 10.0 mi West 17.3 mph 32.2 mph N/A   Overcast
10:54 PM 39.9 °F 31.8 °F 35.1 °F 83% 29.80 in 10.0 mi WSW 15.0 mph - N/A   Overcast
11:54 PM 37.9 °F 29.2 °F 36.0 °F 93% 29.82 in 5.0 mi WSW 15.0 mph - N/A   Overcast